N8VIM Weather Reports


time (UTC)temp
C
wind
direction
speed
KPH
gust
KPH
rain 1hr
cm
rain 24hr
cm
rain mn
cm
humidity
%
barometer
mb
20260905034723 17 312 3.2 6.4 361.92 0.00 0.00 90 1010.2
20260905034224 17 284 4.8 4.8 361.92 0.00 0.00 90 1010.2
20260905033722 17 277 4.8 6.4 361.92 0.00 0.00 89 1010.2
20260905033223 17 0 0.0 0.0 361.92 0.00 0.00 89 1010.2
20260905032722 17 0 0.0 0.0 361.92 0.00 0.00 88 1010.3
20260905031723 17 314 1.6 3.2 361.92 0.00 0.00 88 1010.3
20260905030728 17 260 3.2 6.4 361.92 0.00 0.00 89 1010.3
20260905030223 17 283 1.6 6.4 361.92 0.00 0.00 89 1010.3
20260905025722 17 297 3.2 4.8 361.92 0.00 0.00 88 1010.4
20260905025222 17 280 3.2 3.2 361.92 0.00 0.00 89 1010.4
20260905024723 17 0 0.0 0.0 361.92 0.00 0.00 88 1010.4
20260905023723 17 291 0.0 1.6 361.92 0.00 0.00 87 1010.4
20260905023223 17 271 0.0 1.6 361.92 0.00 0.00 87 1010.5
20260905022722 17 285 0.0 1.6 361.92 0.00 0.00 88 1010.5
20260905021722 18 283 3.2 3.2 361.92 0.00 0.00 88 1010.5
20260905021222 18 287 3.2 6.4 361.92 0.00 0.00 88 1010.5
20260905020722 18 295 1.6 3.2 361.92 0.00 0.00 87 1010.5
20260905020227 18 301 0.0 3.2 361.92 0.00 0.00 87 1010.6
20260905015722 18 0 0.0 0.0 361.92 0.00 0.00 86 1010.6
20260905015222 18 308 0.0 3.2 361.92 0.00 0.00 87 1010.6
20260905014722 18 311 0.0 1.6 361.92 0.00 0.00 87 1010.7
20260905014222 18 0 0.0 0.0 361.92 0.00 0.00 86 1010.7
20260905013722 18 0 0.0 0.0 361.92 0.00 0.00 85 1010.7
20260905013223 18 0 0.0 0.0 361.92 0.00 0.00 85 1010.8
20260905012722 18 0 0.0 0.0 361.92 0.00 0.00 84 1010.7
20260905011722 19 291 0.0 3.2 361.92 0.00 0.00 82 1010.7
20260905011222 19 298 1.6 4.8 361.92 0.00 0.00 83 1010.8
20260905010722 19 285 3.2 4.8 361.92 0.00 0.00 82 1010.7
20260905010222 19 298 3.2 3.2 361.92 0.00 0.00 81 1010.7
20260905005722 19 266 3.2 6.4 361.92 0.00 0.00 80 1010.6
20260905005222 19 287 4.8 6.4 361.92 0.00 0.00 80 1010.6
20260905004722 19 280 4.8 6.4 361.92 0.00 0.00 80 1010.6
20260905003722 20 274 0.0 1.6 361.92 0.00 0.00 79 1010.5
20260905003223 20 300 0.0 3.2 361.92 0.00 0.00 79 1010.5
20260905002222 20 274 0.0 3.2 361.92 0.00 0.00 79 1010.5
20260905001722 20 307 0.0 3.2 361.92 0.00 0.00 77 1010.5
20260905001222 20 277 1.6 6.4 361.92 0.00 0.00 76 1010.5
20260905000722 20 0 1.6 0.0 361.92 0.00 0.00 77 1010.5
20260905000222 20 0 0.0 0.0 361.92 0.00 0.00 78 1010.4
20260904235722 20 0 0.0 0.0 361.92 0.00 0.00 78 1010.5
20260904235222 20 0 0.0 0.0 361.92 0.00 0.00 77 1010.3
20260904234722 20 287 0.0 4.8 361.92 0.00 0.00 76 1010.2
20260904234222 20 277 3.2 4.8 361.92 0.00 0.00 75 1010.2
20260904233722 21 267 3.2 4.8 361.92 0.00 0.00 75 1010.2
20260904232722 21 0 0.0 0.0 361.92 0.00 0.00 73 1010.1
20260904232222 21 297 0.0 1.6 361.92 0.00 0.00 72 1010.0
20260904231723 21 0 0.0 0.0 361.92 0.00 0.00 71 1010.0
20260904231222 22 0 0.0 0.0 361.92 0.00 0.00 71 1009.9
20260904230722 22 0 0.0 0.0 361.92 0.00 0.00 71 1009.9
20260904230231 22 0 0.0 0.0 361.92 0.00 0.00 70 1009.8
20260904224722 23 0 0.0 0.0 361.92 0.00 0.00 66 1009.9
20260904223223 23 0 0.0 0.0 361.92 0.00 0.00 66 1009.8
20260904222722 23 0 0.0 0.0 361.92 0.00 0.00 66 1009.7
20260904222221 24 0 0.0 0.0 361.92 0.00 0.00 66 1009.7
20260904221722 24 0 0.0 0.0 361.92 0.00 0.00 65 1009.7
20260904221221 24 255 0.0 3.2 361.92 0.00 0.00 62 1009.6
20260904220722 25 0 0.0 0.0 361.92 0.00 0.00 61 1009.7
20260904220222 25 295 0.0 0.0 361.92 0.00 0.00 62 1009.6
20260904215721 25 0 0.0 0.0 361.92 0.00 0.00 60 1009.6
20260904215222 25 0 0.0 0.0 361.92 0.00 0.00 60 1009.7
20260904214723 25 0 0.0 0.0 361.92 0.00 0.00 58 1009.6
20260904214221 25 0 0.0 0.0 361.92 0.00 0.00 58 1009.6
20260904213721 26 270 0.0 4.8 361.92 0.00 0.00 57 1009.6
20260904213222 26 245 0.0 6.4 361.92 0.00 0.00 55 1009.7
20260904212721 26 249 0.0 1.6 361.92 0.00 0.00 57 1009.7
20260904212221 26 60 0.0 3.2 361.92 0.00 0.00 54 1009.7
20260904211722 26 318 1.6 4.8 361.92 0.00 0.00 56 1009.6
20260904211221 26 32 0.0 3.2 361.92 0.00 0.00 58 1009.6
20260904210222 26 316 0.0 8.0 361.92 0.00 0.00 53 1009.6
20260904205721 26 359 1.6 1.6 361.92 0.00 0.00 54 1009.6
20260904204722 26 28 0.0 3.2 361.92 0.00 0.00 56 1009.5
20260904204221 26 28 1.6 1.6 361.92 0.00 0.00 56 1009.5
20260904203721 26 0 0.0 1.6 361.92 0.00 0.00 55 1009.5
20260904203222 26 34 0.0 3.2 361.92 0.00 0.00 56 1009.6
20260904202721 26 31 1.6 6.4 361.92 0.00 0.00 54 1009.6
20260904202221 26 28 0.0 4.8 361.92 0.00 0.00 53 1009.6
20260904201722 26 259 1.6 6.4 361.92 0.00 0.00 56 1009.7
20260904201221 26 264 1.6 6.4 361.92 0.00 0.00 54 1009.7
20260904200721 26 257 1.6 8.0 361.92 0.00 0.00 54 1009.6
20260904200222 25 316 3.2 4.8 361.92 0.00 0.00 57 1009.5
20260904195221 26 277 3.2 6.4 361.92 0.00 0.00 52 1009.7
20260904194722 26 284 0.0 9.7 361.92 0.00 0.00 54 1009.7
20260904194221 26 314 1.6 4.8 361.92 0.00 0.00 52 1009.7
20260904193721 26 259 3.2 6.4 361.92 0.00 0.00 51 1009.6
20260904193222 26 315 4.8 8.0 361.92 0.00 0.00 49 1009.6
20260904192221 27 278 1.6 8.0 361.92 0.00 0.00 48 1009.4
20260904191722 27 273 1.6 8.0 361.92 0.00 0.00 47 1009.5
20260904191221 27 288 4.8 6.4 361.92 0.00 0.00 45 1009.4
20260904190721 27 290 1.6 11.3 361.92 0.00 0.00 45 1009.4
20260904190222 27 294 4.8 9.7 361.92 0.00 0.00 45 1009.5
20260904185722 27 300 3.2 14.5 361.92 0.00 0.00 46 1009.5
20260904185221 27 262 3.2 9.7 361.92 0.00 0.00 47 1009.6
20260904184722 27 277 3.2 9.7 361.92 0.00 0.00 46 1009.6
20260904184221 27 7 3.2 4.8 361.92 0.00 0.00 48 1009.7
20260904183721 27 322 3.2 8.0 361.92 0.00 0.00 49 1009.7
20260904183222 27 305 1.6 8.0 361.92 0.00 0.00 49 1009.8
20260904182721 27 309 3.2 8.0 361.92 0.00 0.00 47 1009.7
20260904182221 27 253 3.2 11.3 361.92 0.00 0.00 46 1009.7
20260904181722 27 253 4.8 11.3 361.92 0.00 0.00 46 1009.7
20260904181221 27 319 4.8 11.3 361.92 0.00 0.00 47 1009.8
20260904180721 27 288 6.4 12.9 361.92 0.00 0.00 51 1009.7
20260904180222 27 298 3.2 9.7 361.92 0.00 0.00 48 1009.7
20260904175721 27 277 6.4 11.3 361.92 0.00 0.00 45 1009.8
20260904174722 27 266 8.0 11.3 361.92 0.00 0.00 44 1009.8
20260904174221 27 276 4.8 9.7 361.92 0.00 0.00 48 1009.8
20260904173721 27 300 1.6 6.4 361.92 0.00 0.00 50 1009.8
20260904173222 27 309 1.6 8.0 361.92 0.00 0.00 50 1009.8
20260904172721 27 302 3.2 9.7 361.92 0.00 0.00 47 1009.8
20260904172221 27 20 3.2 6.4 361.92 0.00 0.00 48 1009.7
20260904171721 27 293 1.6 14.5 361.92 0.00 0.00 52 1009.8
20260904171221 26 316 9.7 16.1 361.92 0.00 0.00 48 1009.8
20260904170222 26 270 3.2 9.7 361.92 0.00 0.00 53 1010.0
20260904165221 26 59 6.4 12.9 361.92 0.00 0.00 51 1010.2
20260904164722 26 41 4.8 8.0 361.92 0.00 0.00 54 1010.1
20260904164221 26 290 0.0 4.8 361.92 0.00 0.00 59 1010.0
20260904163722 26 294 1.6 6.4 361.92 0.00 0.00 56 1010.0
20260904163221 26 277 4.8 11.3 361.92 0.00 0.00 54 1010.1
20260904162721 26 339 4.8 9.7 361.92 0.00 0.00 55 1010.1
20260904162221 26 315 6.4 8.0 361.92 0.00 0.00 55 1010.2
20260904161722 26 291 4.8 6.4 361.92 0.00 0.00 56 1010.2
20260904161221 26 293 4.8 8.0 361.92 0.00 0.00 54 1010.1
20260904160721 26 301 4.8 11.3 361.92 0.00 0.00 58 1010.2
20260904160222 26 314 1.6 14.5 361.92 0.00 0.00 58 1010.3
20260904155721 26 278 0.0 6.4 361.92 0.00 0.00 59 1010.3
20260904155221 26 257 1.6 4.8 361.92 0.00 0.00 60 1010.3
20260904154721 26 308 1.6 8.0 361.92 0.00 0.00 62 1010.4
20260904154221 25 359 0.0 6.4 361.92 0.00 0.00 64 1010.6
20260904153721 25 280 3.2 9.7 361.92 0.00 0.00 59 1010.6
20260904153221 25 291 3.2 11.3 361.92 0.00 0.00 64 1010.6
20260904152721 25 276 3.2 16.1 361.92 0.00 0.00 63 1010.6
20260904152221 25 276 6.4 9.7 361.92 0.00 0.00 68 1010.6
20260904151721 25 224 3.2 11.3 361.92 0.00 0.00 68 1010.6
20260904151221 25 256 4.8 9.7 361.92 0.00 0.00 66 1010.7
20260904150721 25 288 0.0 4.8 361.92 0.00 0.00 72 1010.7
20260904150221 24 278 3.2 11.3 361.92 0.00 0.00 69 1010.7
20260904145721 24 291 0.0 3.2 361.92 0.00 0.00 72 1010.7
20260904145221 23 21 0.0 8.0 361.92 0.00 0.00 72 1010.7
20260904144721 23 305 0.0 6.4 361.92 0.00 0.00 79 1010.8
20260904144221 23 263 4.8 9.7 361.92 0.00 0.00 75 1010.8
20260904143721 22 150 4.8 3.2 361.92 0.00 0.00 81 1010.8
20260904143221 22 246 1.6 3.2 361.92 0.00 0.00 85 1010.9
20260904142721 22 253 1.6 4.8 361.92 0.00 0.00 86 1010.9
20260904142221 21 0 0.0 0.0 361.92 0.00 0.00 86 1011.0
20260904141721 21 283 0.0 4.8 361.92 0.00 0.00 87 1011.0
20260904141221 21 277 3.2 8.0 361.92 0.00 0.00 89 1011.1
20260904140721 21 283 6.4 8.0 361.92 0.00 0.00 91 1011.1
20260904140221 20 281 4.8 8.0 361.92 0.00 0.00 93 1011.1
20260904135721 20 256 0.0 4.8 361.92 0.00 0.00 96 1011.1
20260904135221 20 287 3.2 8.0 361.92 0.00 0.00 97 1011.2
20260904134722 20 280 4.8 8.0 361.92 0.00 0.00 97 1011.1
20260904134220 20 287 4.8 8.0 361.92 0.00 0.00 98 1011.0
20260904133221 20 0 0.0 0.0 361.92 0.00 0.00 99 1011.1
20260904132721 19 0 0.0 0.0 361.92 0.00 0.00 99 1011.1
20260904132220 19 0 0.0 0.0 361.92 0.00 0.00 99 1011.2
20260904131721 19 0 0.0 0.0 361.92 0.00 0.00 98 1011.3
20260904130222 18 0 0.0 0.0 361.92 0.00 0.00 99 1011.3
20260904125720 18 173 0.0 1.6 361.92 0.00 0.00 99 1011.3
20260904125222 18 0 1.6 0.0 361.92 0.00 0.00 99 1011.3
20260904124722 18 0 0.0 0.0 361.92 0.00 0.00 98 1011.3
20260904124220 18 0 0.0 0.0 361.92 0.00 0.00 99 1011.2
20260904123721 18 0 0.0 0.0 361.92 0.00 0.00 99 1011.2
20260904123221 18 0 0.0 0.0 361.92 0.00 0.00 99 1011.2
20260904122721 18 0 0.0 0.0 361.92 0.00 0.00 99 1011.1
20260904122223 18 0 0.0 0.0 361.92 0.00 0.00 99 1011.2
20260904121721 17 0 0.0 0.0 361.92 0.00 0.00 99 1011.2
20260904120721 17 0 0.0 0.0 361.92 0.00 0.00 98 1011.2
20260904120221 17 0 0.0 0.0 361.92 0.00 0.00 99 1011.1
20260904115721 17 0 0.0 0.0 361.92 0.00 0.00 99 1011.1
20260904115221 17 0 0.0 0.0 361.92 0.00 0.00 99 1011.1
20260904114722 17 0 0.0 0.0 361.92 0.00 0.00 98 1011.0
20260904114220 17 0 0.0 0.0 361.92 0.00 0.00 98 1011.0
20260904113720 17 0 0.0 0.0 361.92 0.00 0.00 98 1011.0
20260904113221 17 0 0.0 0.0 361.92 0.00 0.00 98 1011.1
20260904112720 17 0 0.0 0.0 361.92 0.00 0.00 98 1011.0
20260904110724 17 0 0.0 0.0 361.92 0.00 0.00 98 1011.0
20260904110221 17 0 0.0 0.0 361.92 0.00 0.00 98 1011.0
20260904105720 17 0 0.0 0.0 361.92 0.00 0.00 98 1011.0
20260904105221 17 0 0.0 0.0 361.92 0.00 0.00 98 1010.9
20260904104724 17 0 0.0 0.0 361.92 0.00 0.00 98 1011.0
20260904104221 17 0 0.0 0.0 361.92 0.00 0.00 98 1010.9
20260904103720 17 0 0.0 0.0 361.92 0.00 0.00 98 1010.8
20260904103221 17 0 0.0 0.0 361.92 0.00 0.00 98 1010.6
20260904102726 17 0 0.0 0.0 361.92 0.00 0.00 98 1010.7
20260904102220 17 0 0.0 0.0 361.92 0.00 0.00 97 1010.6
20260904101721 17 0 0.0 0.0 361.92 0.00 0.00 98 1010.7
20260904100723 17 0 0.0 0.0 361.92 0.00 0.00 98 1010.6
20260904100222 17 0 0.0 0.0 361.92 0.00 0.00 98 1010.4
20260904095220 17 0 0.0 0.0 361.92 0.00 0.00 98 1010.4
20260904094721 17 0 0.0 0.0 361.92 0.00 0.00 98 1010.4
20260904094220 18 0 0.0 0.0 361.92 0.00 0.00 98 1010.5
20260904093724 18 0 0.0 0.0 361.92 0.00 0.00 98 1010.5
20260904093222 18 0 0.0 0.0 361.92 0.00 0.00 98 1010.4
20260904092720 18 0 0.0 0.0 361.92 0.00 0.00 97 1010.5
20260904092220 18 0 0.0 0.0 361.92 0.00 0.00 98 1010.5
20260904091721 18 0 0.0 0.0 361.92 0.00 0.00 98 1010.5
20260904091221 18 0 0.0 0.0 361.92 0.00 0.00 98 1010.6
20260904090223 18 291 0.0 1.6 361.92 0.00 0.00 98 1010.5
20260904085720 18 0 0.0 0.0 361.92 0.00 0.00 98 1010.5
20260904085220 18 0 0.0 0.0 361.92 0.00 0.00 98 1010.5
20260904084721 18 0 0.0 0.0 361.92 0.00 0.00 97 1010.5
20260904084220 18 0 0.0 0.0 361.92 0.00 0.00 97 1010.5
20260904083221 18 0 0.0 0.0 361.92 0.00 0.00 98 1010.5
20260904082721 18 0 0.0 0.0 361.92 0.00 0.00 98 1010.5
20260904082220 18 0 0.0 0.0 361.92 0.00 0.00 98 1010.7
20260904081721 18 0 0.0 0.0 361.92 0.00 0.00 98 1010.6
20260904081221 18 0 0.0 0.0 361.92 0.00 0.00 98 1010.6
20260904080724 18 0 0.0 0.0 361.92 0.00 0.00 98 1010.7
20260904080223 18 0 0.0 0.0 361.92 0.00 0.00 98 1010.8
20260904075721 18 0 0.0 0.0 361.92 0.00 0.00 98 1010.9
20260904074721 18 0 0.0 0.0 361.92 0.00 0.00 98 1010.9
20260904074220 18 0 0.0 0.0 361.92 0.00 0.00 98 1010.9
20260904073221 18 0 0.0 0.0 361.92 0.00 0.00 98 1010.8
20260904072721 18 0 0.0 0.0 361.92 0.00 0.00 98 1010.8
20260904071721 18 0 0.0 0.0 361.92 0.00 0.00 98 1010.8
20260904071220 18 0 0.0 0.0 361.92 0.00 0.00 98 1010.9
20260904070720 18 0 0.0 0.0 361.92 0.00 0.00 97 1010.8
20260904070222 18 0 0.0 0.0 361.92 0.00 0.00 97 1010.8
20260904065220 19 0 0.0 0.0 361.92 0.00 0.00 97 1010.9
20260904064721 19 0 0.0 0.0 361.92 0.00 0.00 97 1010.9
20260904064223 19 0 0.0 0.0 361.92 0.00 0.00 98 1010.9
20260904063220 19 0 0.0 0.0 361.92 0.00 0.00 98 1011.0
20260904062720 19 0 0.0 0.0 361.92 0.00 0.00 98 1011.1
20260904062220 19 0 0.0 0.0 361.92 0.00 0.00 98 1011.2
20260904061723 19 0 0.0 0.0 361.92 0.00 0.00 98 1011.1
20260904061220 19 0 0.0 0.0 361.92 0.00 0.00 98 1011.2
20260904060720 19 0 0.0 0.0 361.92 0.00 0.00 97 1011.2
20260904060220 19 0 0.0 0.0 361.92 0.00 0.00 97 1011.3
20260904055721 19 0 0.0 0.0 361.92 0.00 0.00 97 1011.4
20260904055220 19 0 0.0 0.0 361.92 0.00 0.00 97 1011.5
20260904054720 19 0 0.0 0.0 361.92 0.00 0.00 97 1011.7
20260904053223 19 0 0.0 0.0 361.92 0.00 0.00 97 1012.0
20260904052720 19 0 0.0 0.0 361.92 0.00 0.00 97 1011.9
20260904052220 19 0 0.0 0.0 361.92 0.00 0.00 97 1012.0
20260904051733 19 0 0.0 0.0 361.92 0.00 0.00 97 1011.9
20260904051220 19 0 0.0 0.0 361.92 0.00 0.00 97 1012.1
20260904050720 18 0 0.0 0.0 361.92 0.00 0.00 97 1012.0
20260904050220 18 0 0.0 0.0 361.92 0.00 0.00 97 1012.0
20260904044720 18 0 0.0 0.0 361.92 0.00 0.00 97 1011.9
20260904043720 18 0 0.0 0.0 361.92 0.00 0.00 97 1012.0
20260904043220 18 0 0.0 0.0 361.92 0.00 0.00 97 1012.1
20260904042721 18 0 0.0 0.0 361.92 0.00 0.00 97 1012.0
20260904042220 18 0 0.0 0.0 361.92 0.00 0.00 97 1012.1
20260904041721 18 0 0.0 0.0 361.92 0.00 0.00 97 1012.1
20260904041221 18 0 0.0 0.0 361.92 0.00 0.00 97 1012.1
20260904040220 18 0 0.0 0.0 361.92 0.00 0.00 97 1012.1
20260904035720 18 0 0.0 0.0 361.92 0.00 0.00 97 1012.2
20260904035220 18 0 0.0 0.0 361.92 0.00 0.30 97 1012.3